Meridian, MS

10:00 PM CST on November 11, 2019 (GMT -0600)
Key

Weather History for KMEI - October, 2019

Change the Weather History Date:

Monday, October 21, 2019

  Actual Average Record
Temperature  
Mean Temperature 70 °F 62 °F  
Max Temperature 75 °F 76 °F 88 °F (1963)
Min Temperature 66 °F 49 °F 29 °F (1976)
Degree Days  
Heating Degree Days 0 5  
Month to date heating degree days 26 57  
Since 1 July heating degree days 26 64  
Cooling Degree Days 6 2  
Month to date cooling degree days 203 74  
Year to date cooling degree days 2835 1997  
Growing Degree Days 20 (Base 50)    
Moisture  
Dew Point 67 °F    
Average Humidity 89    
Maximum Humidity 93    
Minimum Humidity 84    
Precipitation  
Precipitation 0.31 in 0.13 in 5.34 in (1984)
Month to date precipitation 4.93 2.48  
Year to date precipitation 48.11 44.87  
Sea Level Pressure  
Sea Level Pressure 29.87 in    
Wind  
Wind Speed 6 mph ()    
Max Wind Speed 17 mph    
Max Gust Speed 22 mph    
Visibility 9.7 miles    
Events Rain    
T = Trace of Precipitation, MM = Missing Value Source: Averaged Metar Reports

Daily Weather History Graph

Daily Weather History Graph

Search for Another Location

Airport or City:

Astronomy

Oct. 21, 2019 Rise Set
Actual Time 7:03 AM CDT 6:15 PM CDT
Civil Twilight 6:38 AM CDT 6:40 PM CDT
Nautical Twilight 6:09 AM CDT 7:09 PM CDT
Astronomical Twilight 5:41 AM CDT 7:37 PM CDT
Moon No Moon Rise 2:09 PM CDT (10/21)
Length of Visible Light 12h 02m
Length of Day
11h 12m
Waning Gibbous, 48% of the Moon is Illuminated
Oct 21
Waning Gibbous
Oct 27
New
Nov 4
First Quarter
Nov 12
Full
Nov 19
Last Quarter

Hourly Weather History & Observations

Time (CDT) Temp. Dew Point Humidity Pressure Visibility Wind Dir Wind Speed Gust Speed Precip Events Conditions
12:58 AM 69.1 °F 64.9 °F 87% 29.88 in 10.0 mi SSW 4.6 mph - N/A   Clear
1:58 AM 69.1 °F 64.9 °F 87% 29.86 in 10.0 mi South 5.8 mph - N/A   Clear
2:58 AM 68.0 °F 64.0 °F 87% 29.85 in 10.0 mi SSW 4.6 mph - N/A   Clear
3:28 AM 69.1 °F 66.0 °F 90% 29.85 in 10.0 mi SSW 4.6 mph - N/A   Partly Cloudy
3:48 AM 69.1 °F 66.0 °F 90% 29.85 in 10.0 mi SSW 5.8 mph - N/A   Mostly Cloudy
3:58 AM 69.1 °F 66.0 °F 90% 29.84 in 10.0 mi SSW 5.8 mph - N/A   Overcast
4:47 AM 70.0 °F 66.9 °F 90% 29.85 in 10.0 mi South 8.1 mph - N/A   Scattered Clouds
4:58 AM 70.0 °F 66.9 °F 90% 29.83 in 10.0 mi South 8.1 mph - N/A   Partly Cloudy
5:58 AM 69.1 °F 66.0 °F 90% 29.84 in 10.0 mi South 8.1 mph - N/A   Partly Cloudy
6:58 AM 70.0 °F 66.9 °F 90% 29.84 in 10.0 mi South 9.2 mph - N/A   Mostly Cloudy
7:12 AM 70.0 °F 66.9 °F 90% 29.85 in 10.0 mi SSW 8.1 mph - N/A   Mostly Cloudy
7:34 AM 70.0 °F 66.9 °F 90% 29.85 in 10.0 mi South 10.4 mph - N/A   Partly Cloudy
7:58 AM 71.1 °F 68.0 °F 90% 29.85 in 10.0 mi South 10.4 mph - N/A   Clear
8:32 AM 72.0 °F 68.0 °F 87% 29.86 in 10.0 mi South 12.7 mph - N/A   Scattered Clouds
8:58 AM 73.0 °F 69.1 °F 87% 29.87 in 10.0 mi SSW 12.7 mph - N/A   Scattered Clouds
9:06 AM 73.0 °F 69.1 °F 87% 29.88 in 10.0 mi South 12.7 mph - N/A   Mostly Cloudy
9:23 AM 73.9 °F 69.1 °F 85% 29.88 in 10.0 mi South 11.5 mph - N/A   Mostly Cloudy
9:51 AM 73.9 °F 69.1 °F 85% 29.88 in 10.0 mi South 10.4 mph - N/A   Overcast
9:58 AM 73.9 °F 69.1 °F 85% 29.88 in 10.0 mi South 10.4 mph - N/A   Overcast
10:34 AM 73.9 °F 69.1 °F 85% 29.90 in 10.0 mi SSW 8.1 mph - 0.00 in Rain Light Rain
10:58 AM 73.9 °F 70.0 °F 87% 29.90 in 10.0 mi South 6.9 mph - 0.01 in Rain Light Rain
11:58 AM 73.9 °F 71.1 °F 91% 29.92 in 10.0 mi SSW 6.9 mph - 0.02 in Rain Light Rain
12:58 PM 73.9 °F 71.1 °F 91% 29.89 in 10.0 mi South 5.8 mph - 0.05 in Rain Light Rain
1:58 PM 73.9 °F 71.1 °F 91% 29.86 in 10.0 mi South 4.6 mph - 0.01 in Rain Light Rain
2:58 PM 69.1 °F 64.9 °F 87% 29.88 in 10.0 mi North 6.9 mph - 0.10 in Rain Light Rain
3:58 PM 66.9 °F 64.0 °F 90% 29.85 in 5.0 mi NE 4.6 mph - 0.04 in Rain Rain
4:58 PM 69.1 °F 66.0 °F 90% 29.80 in 10.0 mi Variable 4.6 mph - 0.07 in Rain Light Rain
5:58 PM 68.0 °F 64.9 °F 90% 29.81 in 10.0 mi NNW 5.8 mph - 0.00 in   Overcast
6:58 PM 68.0 °F 64.9 °F 90% 29.82 in 10.0 mi Calm Calm - N/A   Mostly Cloudy
7:24 PM 68.0 °F 64.9 °F 90% 29.84 in 10.0 mi NNW 3.5 mph - N/A   Mostly Cloudy
7:41 PM 68.0 °F 64.9 °F 90% 29.85 in 10.0 mi NNW 3.5 mph - N/A   Mostly Cloudy
7:58 PM 68.0 °F 64.9 °F 90% 29.85 in 10.0 mi Calm Calm - N/A   Mostly Cloudy
8:41 PM 68.0 °F 64.9 °F 90% 29.87 in 10.0 mi Calm Calm - N/A   Overcast
8:48 PM 68.0 °F 64.9 °F 90% 29.87 in 9.0 mi NW 3.5 mph - 0.00 in Rain Light Rain
8:58 PM 68.0 °F 64.9 °F 90% 29.87 in 8.0 mi NNW 3.5 mph - 0.01 in Rain Light Rain
9:58 PM 68.0 °F 64.9 °F 90% 29.89 in 10.0 mi WNW 5.8 mph - 0.00 in   Overcast
10:58 PM 66.9 °F 64.9 °F 93% 29.91 in 6.0 mi NW 5.8 mph - 0.00 in   Overcast
11:25 PM 66.9 °F 64.0 °F 90% 29.92 in 10.0 mi NNW 3.5 mph - N/A   Overcast
11:48 PM 66.9 °F 64.0 °F 90% 29.92 in 10.0 mi North 3.5 mph - N/A   Overcast
11:58 PM 66.9 °F 64.0 °F 90% 29.91 in 10.0 mi NNW 3.5 mph - N/A   Overcast